EJU32K EGKK-LFPG

Flight info

Callsign EJU32K
Flight time 0h 36m
Altitude 23000
Route SFD M605 HARDY UM605 BIBAX
Aircraft A20N/M-SDE2E3FGHIRWXY/LB1

Departure

Time 2026-05-04 20:39
Airport London Gatwick Airport (EGKK)

Arrival

Time 2026-05-04 21:16
Airport Charles de Gaulle International Airport (LFPG)
Time Latitude Longitude Altitude Speed Heading
2026-05-04 20:00 51.15640 -0.17854 205 ft 0 kts 168°
2026-05-04 20:14 51.15641 -0.17854 204 ft 1 kts 168°
2026-05-04 20:14 51.15655 -0.17859 215 ft 3 kts 168°
2026-05-04 20:14 51.15672 -0.17865 209 ft 2 kts 168°
2026-05-04 20:15 51.15691 -0.17868 206 ft 3 kts 193°
2026-05-04 20:15 51.15708 -0.17856 215 ft 3 kts 230°
2026-05-04 20:15 51.15719 -0.17830 209 ft 3 kts 252°
2026-05-04 20:15 51.15722 -0.17813 204 ft 1 kts 255°
2026-05-04 20:16 51.15722 -0.17810 204 ft 0 kts 255°
2026-05-04 20:19 51.15720 -0.17822 216 ft 3 kts 255°
2026-05-04 20:19 51.15709 -0.17891 204 ft 7 kts 256°
2026-05-04 20:20 51.15693 -0.18007 208 ft 14 kts 257°
2026-05-04 20:20 51.15671 -0.18168 211 ft 15 kts 258°
2026-05-04 20:20 51.15607 -0.18234 204 ft 13 kts 172°
2026-05-04 20:20 51.15510 -0.18200 210 ft 15 kts 167°
2026-05-04 20:21 51.15400 -0.18152 204 ft 17 kts 166°
2026-05-04 20:21 51.15303 -0.18120 206 ft 13 kts 168°
2026-05-04 20:21 51.15271 -0.18109 213 ft 2 kts 167°
2026-05-04 20:22 51.15248 -0.18101 204 ft 5 kts 168°
2026-05-04 20:22 51.15210 -0.18125 211 ft 8 kts 225°
2026-05-04 20:22 51.15191 -0.18218 212 ft 10 kts 262°
2026-05-04 20:22 51.15180 -0.18352 211 ft 14 kts 262°
2026-05-04 20:23 51.15159 -0.18522 213 ft 17 kts 257°
2026-05-04 20:23 51.15134 -0.18702 204 ft 14 kts 258°
2026-05-04 20:23 51.15113 -0.18869 214 ft 14 kts 258°
2026-05-04 20:23 51.15094 -0.19014 205 ft 15 kts 258°
2026-05-04 20:24 51.15071 -0.19186 208 ft 18 kts 257°
2026-05-04 20:24 51.15040 -0.19391 213 ft 20 kts 257°
2026-05-04 20:24 51.15008 -0.19623 207 ft 23 kts 258°
2026-05-04 20:24 51.14973 -0.19882 213 ft 25 kts 257°
2026-05-04 20:25 51.14936 -0.20161 208 ft 26 kts 257°
2026-05-04 20:25 51.14910 -0.20338 213 ft 21 kts 256°
2026-05-04 20:25 51.14879 -0.20533 213 ft 17 kts 256°
2026-05-04 20:25 51.14805 -0.20675 210 ft 16 kts 208°
2026-05-04 20:26 51.14755 -0.20821 213 ft 13 kts 258°
2026-05-04 20:26 51.14733 -0.20980 207 ft 16 kts 257°
2026-05-04 20:26 51.14708 -0.21137 210 ft 14 kts 257°
2026-05-04 20:26 51.14698 -0.21210 213 ft 0 kts 257°
2026-05-04 20:29 51.14690 -0.21263 208 ft 7 kts 257°
2026-05-04 20:30 51.14662 -0.21337 211 ft 9 kts 208°
2026-05-04 20:30 51.14623 -0.21333 212 ft 1 kts 163°
2026-05-04 20:30 51.14622 -0.21332 212 ft 0 kts 165°
2026-05-04 20:33 51.14622 -0.21333 212 ft 0 kts 165°
2026-05-04 20:37 51.14619 -0.21331 211 ft 2 kts 165°
2026-05-04 20:37 51.14580 -0.21314 210 ft 11 kts 163°
2026-05-04 20:38 51.14520 -0.21207 210 ft 15 kts 102°
2026-05-04 20:38 51.14528 -0.21112 215 ft 0 kts 76°
2026-05-04 20:38 51.14530 -0.21100 212 ft 1 kts 77°
2026-05-04 20:38 51.14532 -0.21085 211 ft 7 kts 78°
2026-05-04 20:39 51.14595 -0.20631 211 ft 76 kts 77°
2026-05-04 20:39 51.14753 -0.19498 217 ft 131 kts 77°
2026-05-04 20:39 51.14965 -0.17879 400 ft 151 kts 81°
2026-05-04 20:39 51.15107 -0.16349 1218 ft 139 kts 83°
2026-05-04 20:40 51.15230 -0.14776 1719 ft 149 kts 82°
2026-05-04 20:40 51.15411 -0.13110 2150 ft 162 kts 81°
2026-05-04 20:40 51.15651 -0.11279 2634 ft 176 kts 75°
2026-05-04 20:40 51.15914 -0.09259 3058 ft 201 kts 87°
2026-05-04 20:41 51.15535 -0.07071 3759 ft 215 kts 119°
2026-05-04 20:41 51.14424 -0.05336 4469 ft 236 kts 152°
2026-05-04 20:41 51.12837 -0.04520 5365 ft 247 kts 166°
2026-05-04 20:41 51.11066 -0.03925 5807 ft 272 kts 168°
2026-05-04 20:42 51.09189 -0.03321 5980 ft 275 kts 165°
2026-05-04 20:42 51.07333 -0.02498 6018 ft 277 kts 163°
2026-05-04 20:42 51.05487 -0.01651 6017 ft 276 kts 163°
2026-05-04 20:42 51.03642 -0.00788 6020 ft 276 kts 163°
2026-05-04 20:43 51.01800 0.00081 6018 ft 276 kts 163°
2026-05-04 20:43 50.99978 0.00944 6016 ft 277 kts 163°
2026-05-04 20:43 50.98137 0.01815 6022 ft 276 kts 163°
2026-05-04 20:43 50.96299 0.02684 6020 ft 276 kts 163°
2026-05-04 20:44 50.94474 0.03547 6018 ft 276 kts 163°
2026-05-04 20:44 50.92634 0.04415 6020 ft 275 kts 163°
2026-05-04 20:44 50.90798 0.05280 6015 ft 275 kts 163°
2026-05-04 20:44 50.88958 0.06147 6015 ft 276 kts 163°
2026-05-04 20:45 50.87120 0.07012 6015 ft 275 kts 163°
2026-05-04 20:45 50.85278 0.07877 6011 ft 275 kts 163°
2026-05-04 20:45 50.83439 0.08739 6011 ft 276 kts 163°
2026-05-04 20:45 50.81597 0.09601 6014 ft 275 kts 163°
2026-05-04 20:46 50.79763 0.10460 6012 ft 275 kts 163°
2026-05-04 20:46 50.77926 0.11319 6011 ft 275 kts 163°
2026-05-04 20:46 50.76141 0.12418 6072 ft 276 kts 151°
2026-05-04 20:46 50.74548 0.14126 6580 ft 278 kts 139°
2026-05-04 20:47 50.73068 0.16080 7645 ft 276 kts 140°
2026-05-04 20:47 50.71573 0.18001 8683 ft 279 kts 140°
2026-05-04 20:47 50.70099 0.19879 9668 ft 283 kts 140°
2026-05-04 20:47 50.68536 0.21869 10514 ft 292 kts 140°
2026-05-04 20:48 50.66940 0.23904 10895 ft 315 kts 140°
2026-05-04 20:48 50.65181 0.26152 11299 ft 335 kts 140°
2026-05-04 20:48 50.63352 0.28486 12106 ft 340 kts 140°
2026-05-04 20:48 50.61502 0.30843 12989 ft 344 kts 140°
2026-05-04 20:49 50.59625 0.33232 13825 ft 350 kts 140°
2026-05-04 20:49 50.57723 0.35652 14599 ft 353 kts 140°
2026-05-04 20:49 50.55807 0.38086 15429 ft 355 kts 140°
2026-05-04 20:49 50.53876 0.40536 16211 ft 358 kts 140°
2026-05-04 20:50 50.51927 0.43006 17000 ft 361 kts 140°
2026-05-04 20:50 50.49966 0.45487 17793 ft 364 kts 140°
2026-05-04 20:50 50.47985 0.47991 18519 ft 367 kts 140°
2026-05-04 20:50 50.45988 0.50515 19195 ft 369 kts 140°
2026-05-04 20:51 50.43977 0.53058 19858 ft 373 kts 140°
2026-05-04 20:51 50.41955 0.55653 20457 ft 377 kts 139°
2026-05-04 20:51 50.39926 0.58282 21082 ft 381 kts 140°
2026-05-04 20:51 50.37866 0.60921 21692 ft 384 kts 141°
2026-05-04 20:52 50.35773 0.63566 22296 ft 388 kts 142°
2026-05-04 20:52 50.33645 0.66200 22687 ft 393 kts 143°
2026-05-04 20:52 50.31512 0.68805 22849 ft 393 kts 143°
2026-05-04 20:52 50.29338 0.71479 22969 ft 392 kts 143°
2026-05-04 20:53 50.27196 0.74133 23001 ft 394 kts 142°
2026-05-04 20:53 50.25047 0.76809 23000 ft 395 kts 142°
2026-05-04 20:53 50.22905 0.79481 22998 ft 394 kts 142°
2026-05-04 20:53 50.20792 0.82117 22997 ft 393 kts 142°
2026-05-04 20:54 50.18648 0.84789 22997 ft 394 kts 142°
2026-05-04 20:54 50.16506 0.87454 22995 ft 394 kts 142°
2026-05-04 20:54 50.14362 0.90119 22994 ft 394 kts 142°
2026-05-04 20:54 50.12220 0.92779 22990 ft 394 kts 142°
2026-05-04 20:55 50.10076 0.95437 22990 ft 394 kts 142°
2026-05-04 20:55 50.07931 0.98094 22998 ft 394 kts 142°
2026-05-04 20:55 50.05716 1.00600 22991 ft 393 kts 148°
2026-05-04 20:55 50.03317 1.02672 22986 ft 393 kts 155°
2026-05-04 20:56 50.00847 1.04512 22988 ft 394 kts 155°
2026-05-04 20:56 49.98379 1.06359 22987 ft 394 kts 155°
2026-05-04 20:56 49.95937 1.08192 22980 ft 395 kts 155°
2026-05-04 20:56 49.93460 1.10053 22982 ft 395 kts 155°
2026-05-04 20:57 49.90980 1.11915 22987 ft 395 kts 155°
2026-05-04 20:57 49.88505 1.13771 22985 ft 396 kts 155°
2026-05-04 20:57 49.86025 1.15630 22982 ft 395 kts 155°
2026-05-04 20:57 49.83541 1.17489 22974 ft 396 kts 154°
2026-05-04 20:58 49.81059 1.19344 22966 ft 396 kts 154°
2026-05-04 20:58 49.78609 1.21173 22652 ft 396 kts 154°
2026-05-04 20:58 49.76107 1.23039 21942 ft 399 kts 154°
2026-05-04 20:58 49.73584 1.24918 21168 ft 402 kts 154°
2026-05-04 20:59 49.71091 1.26774 20677 ft 394 kts 154°
2026-05-04 20:59 49.68634 1.28599 20131 ft 389 kts 154°
2026-05-04 20:59 49.66204 1.30403 19587 ft 385 kts 154°
2026-05-04 20:59 49.63838 1.32158 19051 ft 381 kts 154°
2026-05-04 21:00 49.61463 1.33918 18506 ft 377 kts 154°
2026-05-04 21:00 49.59111 1.35659 17938 ft 373 kts 154°
2026-05-04 21:00 49.56784 1.37378 17403 ft 368 kts 154°
2026-05-04 21:00 49.54493 1.39069 16885 ft 363 kts 154°
2026-05-04 21:01 49.52230 1.40737 16360 ft 358 kts 154°
2026-05-04 21:01 49.49991 1.42387 15855 ft 355 kts 154°
2026-05-04 21:01 49.47768 1.44023 15335 ft 352 kts 154°
2026-05-04 21:01 49.45565 1.45643 14832 ft 349 kts 154°
2026-05-04 21:02 49.43415 1.47223 14337 ft 345 kts 154°
2026-05-04 21:02 49.41250 1.48812 13838 ft 343 kts 154°
2026-05-04 21:02 49.39106 1.50384 13310 ft 340 kts 154°
2026-05-04 21:02 49.36982 1.51940 12823 ft 336 kts 154°
2026-05-04 21:03 49.34884 1.53474 12341 ft 332 kts 153°
2026-05-04 21:03 49.32817 1.55018 11842 ft 328 kts 149°
2026-05-04 21:03 49.30970 1.57039 11365 ft 328 kts 141°
2026-05-04 21:03 49.29143 1.59185 11130 ft 334 kts 141°
2026-05-04 21:04 49.27295 1.61353 11009 ft 334 kts 141°
2026-05-04 21:04 49.25456 1.63509 10959 ft 333 kts 141°
2026-05-04 21:04 49.23616 1.65667 10963 ft 334 kts 141°
2026-05-04 21:04 49.21795 1.67803 10964 ft 334 kts 141°
2026-05-04 21:05 49.19951 1.69968 10958 ft 334 kts 141°
2026-05-04 21:05 49.18103 1.72135 10963 ft 334 kts 141°
2026-05-04 21:05 49.16251 1.74306 10968 ft 334 kts 141°
2026-05-04 21:05 49.14409 1.76466 10853 ft 332 kts 141°
2026-05-04 21:06 49.12575 1.78612 10482 ft 331 kts 141°
2026-05-04 21:06 49.10765 1.80722 10236 ft 321 kts 141°
2026-05-04 21:06 49.09047 1.82718 10111 ft 307 kts 141°
2026-05-04 21:06 49.07381 1.84646 9993 ft 294 kts 141°
2026-05-04 21:07 49.05778 1.86495 9756 ft 284 kts 142°
2026-05-04 21:07 49.04205 1.88307 9337 ft 283 kts 141°
2026-05-04 21:07 49.02834 1.90412 8895 ft 279 kts 120°
2026-05-04 21:07 49.02205 1.93155 8408 ft 274 kts 97°
2026-05-04 21:08 49.02129 1.94087 8204 ft 274 kts 96°
2026-05-04 21:08 49.02015 1.95831 7839 ft 273 kts 95°
2026-05-04 21:08 49.01852 1.98705 7311 ft 270 kts 95°
2026-05-04 21:08 49.01684 2.01549 6778 ft 269 kts 95°
2026-05-04 21:09 49.01500 2.04381 6322 ft 269 kts 95°
2026-05-04 21:09 49.01302 2.07210 5977 ft 267 kts 96°
2026-05-04 21:09 49.01099 2.10006 5606 ft 265 kts 96°
2026-05-04 21:09 49.00896 2.12739 5462 ft 254 kts 96°
2026-05-04 21:10 49.00708 2.15359 5253 ft 245 kts 94°
2026-05-04 21:10 49.00663 2.17913 4907 ft 236 kts 88°
2026-05-04 21:10 49.00744 2.20340 4579 ft 219 kts 85°
2026-05-04 21:10 49.00861 2.22544 4265 ft 199 kts 84°
2026-05-04 21:11 49.00970 2.24586 4008 ft 194 kts 84°
2026-05-04 21:11 49.01079 2.26611 3759 ft 193 kts 84°
2026-05-04 21:11 49.01187 2.28628 3542 ft 184 kts 84°
2026-05-04 21:11 49.01286 2.30480 3280 ft 169 kts 84°
2026-05-04 21:12 49.01378 2.32195 3055 ft 156 kts 84°
2026-05-04 21:12 49.01463 2.33782 2845 ft 145 kts 83°
2026-05-04 21:12 49.01542 2.35243 2668 ft 137 kts 84°
2026-05-04 21:12 49.01618 2.36657 2488 ft 133 kts 84°
2026-05-04 21:13 49.01694 2.38065 2305 ft 134 kts 84°
2026-05-04 21:13 49.01745 2.38998 2186 ft 133 kts 84°
2026-05-04 21:13 49.01845 2.40864 1944 ft 133 kts 84°
2026-05-04 21:13 49.01920 2.42263 1774 ft 133 kts 84°
2026-05-04 21:14 49.01996 2.43663 1590 ft 132 kts 84°
2026-05-04 21:14 49.02071 2.45062 1407 ft 132 kts 84°
2026-05-04 21:14 49.02122 2.46004 1291 ft 132 kts 84°
2026-05-04 21:14 49.02196 2.47405 1101 ft 133 kts 84°
2026-05-04 21:15 49.02268 2.48816 920 ft 133 kts 84°
2026-05-04 21:15 49.02348 2.50222 705 ft 133 kts 83°
2026-05-04 21:15 49.02425 2.51599 526 ft 133 kts 83°
2026-05-04 21:15 49.02503 2.52995 375 ft 131 kts 84°
2026-05-04 21:16 49.02569 2.54256 358 ft 96 kts 86°
2026-05-04 21:16 49.02604 2.54959 358 ft 38 kts 86°
2026-05-04 21:16 49.02568 2.55303 361 ft 25 kts 110°
2026-05-04 21:16 49.02504 2.55500 359 ft 13 kts 120°
2026-05-04 21:17 49.02483 2.55563 358 ft 5 kts 108°
2026-05-04 21:17 49.02480 2.55580 356 ft 0 kts 108°
2026-05-04 21:17 49.02479 2.55581 356 ft 0 kts 108°
2026-05-04 21:17 49.02476 2.55589 361 ft 2 kts 122°
2026-05-04 21:18 49.02448 2.55610 357 ft 7 kts 166°
2026-05-04 21:18 49.02381 2.55616 358 ft 12 kts 178°
2026-05-04 21:18 49.02280 2.55626 360 ft 17 kts 176°
2026-05-04 21:18 49.02211 2.55635 357 ft 7 kts 175°
2026-05-04 21:19 49.02166 2.55641 362 ft 8 kts 175°
2026-05-04 21:19 49.02108 2.55646 354 ft 9 kts 186°
2026-05-04 21:19 49.02069 2.55575 359 ft 11 kts 252°
2026-05-04 21:19 49.02036 2.55464 356 ft 12 kts 214°
2026-05-04 21:20 49.01949 2.55464 355 ft 13 kts 174°
2026-05-04 21:20 49.01883 2.55406 360 ft 12 kts 249°
2026-05-04 21:20 49.01870 2.55264 356 ft 15 kts 265°
2026-05-04 21:20 49.01843 2.55141 361 ft 13 kts 212°
2026-05-04 21:21 49.01754 2.55137 361 ft 11 kts 179°
2026-05-04 21:21 49.01705 2.55102 358 ft 8 kts 257°
2026-05-04 21:21 49.01709 2.54980 356 ft 12 kts 278°
2026-05-04 21:21 49.01675 2.54882 355 ft 11 kts 179°
2026-05-04 21:22 49.01583 2.54891 355 ft 15 kts 176°
2026-05-04 21:22 49.01468 2.54902 363 ft 18 kts 175°
2026-05-04 21:22 49.01346 2.54935 359 ft 15 kts 165°
2026-05-04 21:22 49.01233 2.54982 359 ft 18 kts 164°
2026-05-04 21:23 49.01102 2.55040 361 ft 21 kts 164°
2026-05-04 21:23 49.00960 2.55106 358 ft 21 kts 164°
2026-05-04 21:23 49.00832 2.55157 360 ft 17 kts 161°
2026-05-04 21:23 49.00724 2.55211 360 ft 14 kts 160°
2026-05-04 21:24 49.00704 2.55312 355 ft 11 kts 65°
2026-05-04 21:24 49.00725 2.55442 361 ft 14 kts 85°
2026-05-04 21:24 49.00737 2.55603 362 ft 17 kts 83°
2026-05-04 21:24 49.00753 2.55794 360 ft 19 kts 82°
2026-05-04 21:25 49.00773 2.56010 357 ft 21 kts 81°
2026-05-04 21:25 49.00793 2.56205 361 ft 17 kts 82°
2026-05-04 21:25 49.00802 2.56382 355 ft 16 kts 103°
2026-05-04 21:25 49.00722 2.56454 356 ft 9 kts 176°
2026-05-04 21:26 49.00651 2.56474 356 ft 13 kts 146°
2026-05-04 21:26 49.00637 2.56611 362 ft 15 kts 81°
2026-05-04 21:26 49.00643 2.56750 358 ft 11 kts 86°
2026-05-04 21:26 49.00647 2.56845 353 ft 3 kts 86°
2026-05-04 21:27 49.00650 2.56902 359 ft 7 kts 83°
2026-05-04 21:27 49.00635 2.56969 357 ft 8 kts 148°
2026-05-04 21:27 49.00575 2.56984 357 ft 8 kts 176°
2026-05-04 21:27 49.00548 2.56963 360 ft 2 kts 236°
2026-05-04 21:28 49.00543 2.56948 356 ft 0 kts 243°